When you browse on this site, cookies collect data to enhance your experience and personalize the content and advertising you see.
Visit our Privacy Policy to learn more. By continuing to use the site, you agree to this use of cookies and data.
  • In Switzerland
  • List of Countries
  • For 7 days
  • Water Temperature
  • Satellite Maps
  • Weather Map
  • Weather Widgets
  • user-avatar
    Login

    Hourly Weather Hobart

    Today, 22 January, Tuesday

    Time Temperature Precipitation Wind Pressure Humidity
    00:00 +15°C° 0 mm 1 mps 746 mmHg 79%
    01:00 +14°C° 0 mm 1 mps 746 mmHg 80%
    02:00 +14°C° 0 mm 1 mps 746 mmHg 79%
    03:00 +14°C° 0 mm 1 mps 745 mmHg 79%
    04:00 +12°C° 0 mm 1 mps 745 mmHg 88%
    05:00 +14°C° 0 mm 1 mps 745 mmHg 79%
    06:00 +16°C° 0 mm 1 mps 745 mmHg 70%
    07:00 +18°C° 0 mm 1 mps 745 mmHg 61%
    08:00 +22°C° 0 mm 1 mps 745 mmHg 53%
    09:00 +25°C° 0 mm 1 mps 745 mmHg 45%
    10:00 +28°C° 0 mm 2 mps 745 mmHg 36%
    11:00 +29°C° 0 mm 2 mps 745 mmHg 33%
    12:00 +31°C° 0 mm 2 mps 745 mmHg 29%
    13:00 +33°C° 0 mm 3 mps 744 mmHg 25%
    14:00 +33°C° 0 mm 3 mps 744 mmHg 27%
    15:00 +31°C° 0 mm 3 mps 744 mmHg 29%
    16:00 +30°C° 0 mm 3 mps 743 mmHg 31%
    17:00 +28°C° 0 mm 2 mps 743 mmHg 37%
    18:00 +26°C° 0 mm 2 mps 743 mmHg 44%
    19:00 +24°C° 0 mm 2 mps 743 mmHg 51%
    20:00 +22°C° 0 mm 1 mps 743 mmHg 59%
    21:00 +20°C° 0 mm 1 mps 743 mmHg 68%
    22:00 +16°C° 0 mm 1 mps 744 mmHg 77%
    23:00 +18°C° 0.1 mm 1 mps 744 mmHg 79%

    Tomorrow, 23 January, Wednesday

    Time Temperature Precipitation Wind Pressure Humidity
    00:00 +17°C° 0.1 mm 2 mps 745 mmHg 80%
    01:00 +17°C° 0.1 mm 3 mps 745 mmHg 82%
    02:00 +16°C° 0.1 mm 3 mps 746 mmHg 83%
    03:00 +13°C° 0.1 mm 4 mps 746 mmHg 85%
    04:00 +12°C° 0.1 mm 5 mps 747 mmHg 86%
    05:00 +12°C° 0 mm 4 mps 747 mmHg 82%
    06:00 +12°C° 0 mm 4 mps 748 mmHg 78%
    07:00 +12°C° 0 mm 4 mps 749 mmHg 75%
    08:00 +13°C° 0 mm 3 mps 749 mmHg 65%
    09:00 +14°C° 0 mm 3 mps 750 mmHg 55%
    10:00 +16°C° 0 mm 3 mps 750 mmHg 45%
    11:00 +18°C° 0 mm 3 mps 750 mmHg 41%
    12:00 +19°C° 0 mm 3 mps 750 mmHg 37%
    13:00 +20°C° 0 mm 3 mps 750 mmHg 34%
    14:00 +19°C° 0 mm 3 mps 750 mmHg 36%
    15:00 +19°C° 0 mm 3 mps 750 mmHg 38%
    16:00 +19°C° 0 mm 3 mps 750 mmHg 40%
    17:00 +17°C° 0 mm 3 mps 750 mmHg 45%
    18:00 +16°C° 0 mm 3 mps 751 mmHg 51%
    19:00 +13°C° 0 mm 3 mps 751 mmHg 57%
    20:00 +13°C° 0 mm 2 mps 751 mmHg 64%
    21:00 +12°C° 0 mm 2 mps 752 mmHg 72%
    22:00 +10°C° 0 mm 1 mps 752 mmHg 79%
    23:00 +10°C° 0 mm 1 mps 752 mmHg 81%

    Day after tomorrow, 24 January, Thursday

    Time Temperature Precipitation Wind Pressure Humidity
    00:00 +10°C° 0 mm 1 mps 752 mmHg 82%
    01:00 +9°C° 0 mm 1 mps 751 mmHg 84%
    02:00 +9°C° 0 mm 1 mps 751 mmHg 85%
    03:00 +9°C° 0 mm 1 mps 751 mmHg 86%
    04:00 +8°C° 0 mm 2 mps 751 mmHg 86%
    05:00 +10°C° 0 mm 2 mps 751 mmHg 79%
    06:00 +12°C° 0 mm 2 mps 751 mmHg 72%
    07:00 +14°C° 0 mm 2 mps 751 mmHg 65%
    08:00 +17°C° 0 mm 2 mps 750 mmHg 57%
    09:00 +19°C° 0 mm 2 mps 750 mmHg 48%
    10:00 +23°C° 0 mm 2 mps 750 mmHg 40%
    11:00 +24°C° 0 mm 3 mps 749 mmHg 37%
    12:00 +26°C° 0 mm 4 mps 749 mmHg 35%
    13:00 +28°C° 0 mm 4 mps 749 mmHg 32%
    14:00 +28°C° 0 mm 5 mps 748 mmHg 33%
    15:00 +28°C° 0 mm 5 mps 748 mmHg 34%
    16:00 +28°C° 0 mm 5 mps 747 mmHg 34%
    17:00 +26°C° 0 mm 5 mps 747 mmHg 39%
    18:00 +25°C° 0 mm 5 mps 746 mmHg 43%
    19:00 +23°C° 0 mm 4 mps 746 mmHg 47%
    20:00 +22°C° 0 mm 4 mps 745 mmHg 50%
    21:00 +20°C° 0 mm 4 mps 745 mmHg 52%
    22:00 +19°C° 0 mm 4 mps 745 mmHg 55%
    23:00 +19°C° 0 mm 4 mps 744 mmHg 55%

    25 January, Friday

    Time Temperature Precipitation Wind Pressure Humidity
    00:00 +18°C° 0 mm 4 mps 743 mmHg 56%
    01:00 +18°C° 0 mm 4 mps 742 mmHg 56%
    02:00 +19°C° 0 mm 4 mps 741 mmHg 52%
    03:00 +20°C° 0 mm 4 mps 740 mmHg 48%
    04:00 +21°C° 0 mm 4 mps 740 mmHg 44%
    05:00 +23°C° 0.1 mm 4 mps 739 mmHg 41%
    06:00 +26°C° 0.1 mm 4 mps 739 mmHg 38%
    07:00 +28°C° 0.1 mm 4 mps 739 mmHg 35%
    08:00 +32°C° 0.1 mm 5 mps 739 mmHg 32%
    09:00 +34°C° 0.1 mm 6 mps 739 mmHg 28%
    10:00 +38°C° 0.1 mm 7 mps 738 mmHg 25%
    11:00 +40°C° 0 mm 7 mps 738 mmHg 25%
    12:00 +41°C° 0 mm 6 mps 737 mmHg 24%
    13:00 +42°C° 0 mm 6 mps 737 mmHg 23%
    14:00 +40°C° 0 mm 5 mps 737 mmHg 26%
    15:00 +37°C° 0 mm 5 mps 736 mmHg 29%
    16:00 +35°C° 0 mm 4 mps 736 mmHg 32%
    17:00 +32°C° 0 mm 4 mps 736 mmHg 36%
    18:00 +29°C° 0 mm 3 mps 737 mmHg 40%
    19:00 +27°C° 0 mm 2 mps 737 mmHg 43%
    20:00 +25°C° 0 mm 2 mps 737 mmHg 49%
    21:00 +23°C° 0 mm 2 mps 738 mmHg 54%
    22:00 +20°C° 0 mm 2 mps 739 mmHg 59%
    23:00 +19°C° 0 mm 2 mps 739 mmHg 64%

    26 January, Saturday

    Time Temperature Precipitation Wind Pressure Humidity
    00:00 +18°C° 0 mm 2 mps 739 mmHg 69%
    01:00 +18°C° 0 mm 2 mps 739 mmHg 73%
    02:00 +17°C° 0 mm 2 mps 740 mmHg 73%
    03:00 +17°C° 0 mm 2 mps 740 mmHg 72%
    04:00 +17°C° 0 mm 2 mps 741 mmHg 72%
    05:00 +17°C° 0 mm 2 mps 741 mmHg 68%
    06:00 +17°C° 0 mm 2 mps 741 mmHg 65%
    07:00 +17°C° 0 mm 2 mps 742 mmHg 62%
    08:00 +19°C° 0 mm 2 mps 742 mmHg 55%
    09:00 +21°C° 0 mm 2 mps 742 mmHg 48%
    10:00 +23°C° 0 mm 2 mps 743 mmHg 41%
    11:00 +25°C° 0 mm 2 mps 742 mmHg 37%
    12:00 +27°C° 0 mm 3 mps 742 mmHg 34%
    13:00 +29°C° 0 mm 3 mps 741 mmHg 31%
    14:00 +26°C° 0 mm 3 mps 741 mmHg 39%
    15:00 +23°C° 0 mm 4 mps 740 mmHg 48%
    16:00 +20°C° 0 mm 4 mps 740 mmHg 56%
    17:00 +18°C° 0 mm 4 mps 740 mmHg 65%
    18:00 +17°C° 0 mm 3 mps 740 mmHg 74%
    19:00 +15°C° 0 mm 2 mps 740 mmHg 83%
    20:00 +15°C° 0 mm 2 mps 739 mmHg 85%
    21:00 +15°C° 0 mm 2 mps 739 mmHg 87%
    22:00 +15°C° 0 mm 2 mps 739 mmHg 89%
    23:00 +14°C° 0 mm 2 mps 738 mmHg 91%

    27 January, Sunday

    Time Temperature Precipitation Wind Pressure Humidity
    00:00 +13°C° 0 mm 1 mps 738 mmHg 92%
    01:00 +12°C° 0 mm 1 mps 737 mmHg 94%
    02:00 +12°C° 0 mm 2 mps 737 mmHg 89%
    03:00 +12°C° 0 mm 2 mps 737 mmHg 85%
    04:00 +11°C° 0 mm 3 mps 737 mmHg 80%
    05:00 +13°C° 0 mm 3 mps 737 mmHg 74%
    06:00 +14°C° 0 mm 4 mps 738 mmHg 67%
    07:00 +16°C° 0 mm 5 mps 738 mmHg 61%
    08:00 +16°C° 0.1 mm 5 mps 738 mmHg 59%
    09:00 +17°C° 0.1 mm 6 mps 738 mmHg 56%
    10:00 +17°C° 0.1 mm 6 mps 739 mmHg 54%
    11:00 +17°C° 0 mm 6 mps 739 mmHg 50%
    12:00 +17°C° 0 mm 6 mps 739 mmHg 46%
    13:00 +17°C° 0 mm 6 mps 739 mmHg 42%
    14:00 +17°C° 0 mm 5 mps 739 mmHg 40%
    15:00 +19°C° 0 mm 5 mps 739 mmHg 37%
    16:00 +19°C° 0 mm 5 mps 740 mmHg 35%
    17:00 +17°C° 0 mm 5 mps 740 mmHg 40%
    18:00 +16°C° 0 mm 5 mps 740 mmHg 44%
    19:00 +15°C° 0 mm 5 mps 741 mmHg 49%
    20:00 +14°C° 0 mm 4 mps 741 mmHg 53%
    21:00 +13°C° 0 mm 4 mps 742 mmHg 57%
    22:00 +12°C° 0 mm 3 mps 742 mmHg 61%
    23:00 +12°C° 0 mm 3 mps 742 mmHg 62%
    Show more